Hovedside
METAR-TAF:

METAR-TAF

Lufthavner :

Pearson Field

Vancouver, Washington, USA

breddegrad: 45-37-24N, lengdegrad: 122-39-23W, høyde over havet: 7 m

Gjeldene værobservasjon

Denne rapporten ble laget for 25 minutter siden, klokken 16:35 UTC
Vind 4 kt fra Nord-nordvest
Temperatur 8°C
Luftfuktighet 100%
Trykk 1026 hPa
Sikt: 1.2 km
Overskyet i en høyde av 300 ft
dis

METAR: KVUO 191635Z AUTO 34004KT 3/4SM BR OVC003 08/08 A3029 RMK AO2 T00830078

Tid: 10:00 (17:00 UTC)


TAF: fraværende

Værobservasjoner og værvarsel for over 4000 flyplasser (METAR- og TAF-rapporter).

Tilgjengelige stasjoner er representert av de røde og gule prikkene på kartet.

Hold musepekeren over prikken for å se navnet på stasjonen.

Klikk så for å se værobservasjoner og -varsler.

For å forandre kartet kan du klikke på den grønne knappen med svart kryss for å zoome inn, på den grønne knappen med strek for å zoome ut, eller på de grønne pilene for å se tilstøtende kart.


METAR-TAF: